Starlink 32472

operational
NORAD ID: 61846 Int'l Des: 2024-202 Owner: SPXS Country: US Constellation: starlink
LEOCIRCULAR

关于 Starlink 32472

正在加载描述...

实时位置

正在加载3D地球...

即将过境

高度历史

Altitude vs Time

uPlot chart will show altitude changes over time

两行轨道根数

1 61846U 24202B 25351.31748885 -.00001176 00000-0 -33238-4 0 9995
2 61846 43.0011 332.4803 0000198 21.8910 338.1950 15.27584231 62856
Epoch: Dec 17, 2025 • Age: 31 hours

当前状态

高度 493.3 km
速度 7.62 km/s
星下点 -35.60°S, 33.35°W
发射日期 Nov 7, 2024
运行时间 1.1 years
类型 internet

技术详情

分类 Payload
质量 730.00 kg
干质量 700.00 kg
总质量 730.00 kg
长度 0.30 m
直径 4.10 m
跨度 29.00 m
形状 Box + pan
制造商 SPXS
平台类型 Starlink V2M
阶段状态 In Orbit
所有者/国家 SPXS/US

大型星座

Loading constellations...